Terug naar catalogus

STARLINK-4694

ActiefCommunicatieVLEO
NORAD 53708·PAYLOAD·🇺🇸 United States

Gelanceerd Sep 5, 2022 vanaf Cape Canaveral Space Force Station

Loading…

Volgende Passages (komende 24 uur)

TLE

VersSource: CelesTrak SupGP

Epoch: Sep 14, 2026, 21:12 UTC

1 53708C 22107J   26257.88381944  .00014683  00000+0  42020-3 0  2571
2 53708  53.1588  88.6786 0001324  80.4837   3.9933 15.35383591    19

Volg STARLINK-4694 in realtime met AllMySat

Download on the App Store